Theta_e
308 310 311 310 313 317 318 318 312 314 314 306 308 310 311 314 316 316 318 326 334 336 332 331 331 331 338 337 336 337 341 340 338 336 334 346 349 345 347 346 347 346 347 349 348 346 345 344 340 336 334 331 329 328 327 327 327 327 328 327 326 326 330 334 338 339 339 338 338 339 340 342 341 342 341 340 339 338 338 338 339 340 340 339 340 341 341 342 341 341 339 339 339 338 339 339 338
311 311 310 312 316 318 317 317 311 310 310 305 309 311 313 316 315 317 319 325 335 339 336 335 335 337 340 339 339 338 343 345 345 345 344 347 346 346 346 345 347 346 348 349 349 347 345 345 341 337 334 332 329 329 328 327 327 328 328 328 328 330 331 332 335 336 337 337 338 339 340 340 340 339 338 338 337 335 332 332 334 335 337 339 341 341 340 340 340 339 338 338 337 338 338 338 338
312 311 312 314 316 317 318 316 309 307 307 305 308 315 317 317 320 325 325 327 338 340 340 339 339 340 339 340 339 337 343 346 344 344 345 347 347 345 344 345 347 347 348 348 349 348 346 345 342 339 335 333 331 330 328 327 328 328 329 329 330 333 334 335 336 337 337 338 339 339 338 337 337 337 337 337 336 335 335 335 334 333 335 338 340 340 340 339 338 338 338 337 337 338 338 338 337
311 313 315 317 316 315 316 314 311 307 306 305 307 320 326 323 329 332 331 335 340 340 341 341 341 340 340 341 339 340 345 346 345 345 346 347 346 345 345 346 346 346 346 347 349 349 347 345 343 340 336 334 332 331 328 328 328 328 330 329 329 333 337 338 339 339 339 339 339 337 336 334 334 336 337 336 336 338 340 340 337 334 333 336 339 339 339 338 338 337 338 337 337 338 337 337 337
312 315 315 318 317 315 316 315 314 308 307 308 308 322 330 329 333 332 335 338 339 339 340 341 341 340 342 345 342 342 345 345 345 347 348 347 346 345 344 345 345 345 345 345 347 349 347 344 343 341 337 334 333 332 329 327 328 329 330 330 329 332 336 338 338 338 337 337 336 334 333 332 334 336 337 337 338 339 340 338 335 333 331 334 339 338 338 337 337 337 337 337 337 337 337 337 336
313 315 316 317 319 317 316 312 310 309 311 313 312 322 329 332 336 334 337 337 337 338 339 342 341 340 344 347 344 345 346 345 346 348 349 347 346 345 344 343 344 344 344 345 345 347 346 344 344 342 338 336 333 332 330 328 328 329 330 330 329 329 331 333 334 335 334 333 332 331 329 331 334 336 336 337 339 339 339 337 335 333 330 330 334 337 337 337 337 336 336 338 338 337 336 336 335
315 316 316 315 316 316 314 310 309 311 313 315 316 322 326 331 333 332 335 334 336 338 339 341 341 343 346 345 344 345 346 347 347 348 348 347 346 345 344 343 343 344 344 345 343 346 346 344 343 342 340 336 334 333 331 329 328 329 330 331 330 329 328 328 329 331 333 333 333 332 330 332 334 335 336 336 338 339 338 338 336 334 332 328 328 333 336 336 336 336 337 338 337 336 335 335 334
315 317 316 315 316 315 313 311 312 314 315 315 320 322 322 327 327 326 331 334 336 338 340 340 340 343 345 344 345 345 347 349 349 348 347 346 346 344 343 342 343 343 344 344 344 346 346 344 343 343 342 338 336 334 331 330 329 329 330 330 330 330 329 329 329 329 331 333 334 334 333 333 334 335 336 337 337 338 337 337 336 334 332 328 326 330 333 335 336 336 337 337 336 334 333 333 332
315 317 316 313 315 314 311 311 313 316 316 315 319 321 319 321 322 324 327 331 334 336 339 340 339 341 343 344 345 346 348 349 349 348 347 346 346 344 342 342 342 342 342 343 344 345 345 345 345 343 343 342 338 335 333 331 329 329 329 331 331 331 331 331 332 332 331 332 334 336 336 335 335 335 336 337 337 337 337 336 336 334 332 330 328 328 333 335 335 336 337 337 336 333 331 331 330
315 316 316 314 314 311 308 310 313 315 315 315 316 319 318 317 319 321 324 329 333 335 337 338 338 340 343 344 345 346 348 348 348 347 347 346 345 343 342 342 343 343 342 343 343 344 344 344 345 344 344 343 341 337 334 332 330 329 329 330 332 332 332 332 333 333 333 333 334 336 336 337 336 336 337 337 337 336 336 336 336 334 331 332 329 328 333 335 335 336 336 336 336 332 330 331 331
316 314 315 313 310 308 307 310 312 315 315 315 315 316 317 316 316 318 322 326 329 333 336 336 339 341 343 344 344 346 349 348 348 348 347 344 343 343 343 343 342 342 342 343 342 343 343 343 345 345 344 343 343 340 335 333 332 330 329 330 332 333 333 333 334 333 334 334 334 335 336 337 337 337 337 336 335 335 335 336 336 334 330 330 330 329 334 335 334 336 336 336 335 332 331 332 333
315 314 314 310 310 309 309 311 312 315 314 314 315 316 315 316 316 316 320 324 328 332 334 335 337 340 342 344 344 347 349 347 348 347 346 345 344 343 343 343 342 342 342 342 342 343 343 342 344 345 344 343 344 343 339 336 333 331 330 330 332 334 334 333 334 334 334 334 334 334 335 337 337 337 336 335 334 332 333 335 336 335 332 329 329 329 332 333 334 335 335 335 334 333 333 333 333
315 315 314 311 312 312 312 312 312 314 313 315 315 316 315 315 316 316 318 322 326 330 333 335 336 337 341 344 344 346 347 347 348 347 347 345 343 342 342 342 342 342 341 341 342 343 343 342 344 344 344 344 344 344 342 339 337 334 331 331 333 334 335 334 334 334 335 334 334 333 334 337 337 337 336 336 334 332 333 334 335 336 334 330 328 329 329 330 332 334 334 334 333 333 333 332 331
313 315 314 312 315 313 312 311 312 312 311 316 315 315 315 314 316 316 317 318 322 329 333 336 334 335 341 344 343 344 346 347 347 346 346 346 344 343 341 341 341 341 341 341 341 342 343 342 344 344 344 344 344 344 343 342 340 337 333 332 334 335 334 335 334 335 335 335 335 334 334 336 338 337 336 335 334 332 332 332 334 336 335 332 328 328 329 330 332 333 334 333 333 333 332 331 331
314 314 314 313 313 313 312 312 312 311 311 316 315 314 314 315 318 318 318 317 322 332 334 336 335 334 336 341 342 342 346 347 347 346 346 345 344 343 342 341 341 341 340 341 340 341 342 342 343 343 344 344 343 343 343 343 342 340 337 334 335 334 334 335 335 335 336 337 337 335 334 336 338 337 336 335 334 333 332 331 332 334 335 334 331 329 330 331 332 332 332 332 332 332 331 331 330
313 314 314 313 312 310 312 313 313 311 313 317 314 315 314 316 320 320 321 318 325 333 332 335 336 334 332 335 340 343 347 347 347 346 345 345 344 343 342 341 341 341 341 341 340 341 341 342 342 342 345 345 343 343 342 343 343 341 339 337 335 334 335 335 335 336 337 338 337 337 336 337 338 338 336 336 335 333 332 331 330 331 333 335 333 331 331 331 330 330 329 331 331 331 330 330 327
313 313 313 312 310 310 312 314 312 312 314 317 315 316 313 315 320 323 325 320 325 331 331 336 335 334 336 338 342 345 347 347 347 346 345 345 344 343 343 342 341 341 341 340 341 341 340 340 341 341 344 345 345 343 342 343 342 341 341 340 337 335 335 336 336 337 338 338 338 338 337 338 338 338 338 336 336 334 332 331 329 328 331 333 334 333 333 332 328 326 326 327 328 329 328 326 322
311 313 312 311 312 312 313 314 314 313 315 315 315 315 314 316 322 326 326 321 323 330 334 337 336 335 340 344 345 346 347 346 346 345 346 345 345 344 343 342 342 341 341 341 340 340 340 339 340 341 343 345 345 344 343 343 342 342 342 341 339 337 335 337 338 338 339 339 338 338 338 338 337 338 337 336 337 336 334 332 329 327 328 330 331 332 333 333 331 327 325 324 324 324 323 325 324
311 313 312 311 314 314 314 314 313 314 315 314 315 315 313 317 324 328 326 323 326 331 334 337 338 338 341 345 346 346 346 347 346 346 346 345 345 344 344 342 341 341 340 340 339 339 339 339 339 340 341 344 345 344 343 343 342 342 342 342 341 338 337 338 339 340 339 337 338 338 339 339 338 338 336 336 338 337 335 333 331 328 326 327 328 329 330 332 332 330 327 325 323 321 321 326 328
312 312 312 312 313 313 313 313 313 314 314 314 315 314 314 320 325 327 328 327 328 330 333 336 338 339 341 342 345 346 345 346 346 345 345 344 344 344 343 343 342 341 340 339 339 338 338 338 339 339 339 341 343 344 344 342 342 342 342 342 341 340 340 340 340 340 338 337 338 338 339 339 338 339 337 336 336 335 334 334 332 330 328 327 326 328 328 328 330 331 330 327 326 324 324 327 327
312 312 311 312 313 312 312 312 313 313 313 313 313 313 315 321 324 326 328 329 327 327 331 334 337 339 341 341 343 346 345 345 345 344 344 344 344 343 343 343 342 341 340 339 339 338 338 337 338 339 338 339 340 342 344 343 342 342 342 342 342 341 341 340 340 340 339 339 339 338 339 339 338 338 336 335 335 334 335 335 334 333 333 331 328 329 330 328 328 331 331 329 329 328 328 328 326
311 311 312 313 312 312 312 313 313 313 313 313 313 314 314 318 322 326 328 328 327 327 332 334 335 338 340 341 343 345 345 344 344 344 343 343 343 343 343 343 343 342 340 339 338 338 338 338 338 338 338 338 339 339 341 342 343 342 342 342 342 341 341 340 339 339 339 339 340 338 339 338 339 338 335 334 336 336 337 336 336 335 335 334 333 330 330 330 329 329 331 330 330 329 328 329 328
310 311 312 312 312 312 312 312 313 312 313 313 314 313 313 314 320 326 328 328 326 328 331 334 338 339 341 343 343 344 342 342 343 344 343 343 343 343 343 343 343 342 340 339 339 338 339 339 338 338 338 338 339 338 339 341 342 342 341 341 341 341 341 340 339 338 338 339 339 338 339 338 338 338 335 335 336 337 337 336 336 335 335 335 335 333 331 331 329 328 329 330 330 329 329 329 328
310 311 312 312 311 312 312 312 313 312 313 313 313 313 313 314 320 327 328 327 326 327 330 335 339 341 342 342 342 343 341 341 343 342 342 342 342 342 341 342 342 341 340 339 339 339 339 339 339 338 339 339 339 339 338 340 342 342 341 340 340 340 340 340 339 339 339 339 339 338 338 338 338 337 336 336 337 338 337 337 337 336 335 335 336 334 331 330 329 328 328 328 329 329 328 328 328
310 310 311 312 312 312 313 313 313 313 312 313 312 313 313 313 320 326 328 327 326 328 331 336 338 339 341 342 342 342 342 342 342 342 341 339 340 340 340 341 341 341 340 340 339 339 339 339 339 338 339 338 338 338 337 338 340 341 341 340 340 339 339 340 340 339 339 338 338 337 337 338 338 337 336 337 338 338 338 338 337 336 335 335 336 334 332 330 329 328 328 328 328 328 327 327 327
310 311 312 312 313 313 314 312 313 313 312 313 313 314 315 315 319 323 327 328 328 331 334 336 338 338 340 341 342 342 341 342 342 341 339 337 339 339 340 340 340 340 339 339 339 339 338 338 338 337 338 337 337 337 337 337 337 338 339 340 340 339 338 339 339 339 338 338 337 336 336 338 338 336 336 336 338 338 337 337 336 335 334 334 334 334 332 330 329 329 328 328 327 327 326 325 326
311 312 312 312 313 313 313 312 313 313 313 312 313 315 316 316 318 322 326 327 328 332 336 336 337 339 339 339 339 340 339 340 340 339 338 338 338 338 339 339 339 339 339 338 338 337 338 337 336 335 336 337 336 336 336 336 336 336 337 337 338 339 339 338 338 338 337 337 337 336 336 337 337 336 335 336 336 336 336 336 336 335 335 335 333 332 332 330 330 329 327 328 327 325 325 325 325
313 312 312 313 313 313 312 312 312 313 313 312 314 316 316 316 317 320 324 327 329 331 335 337 337 340 339 338 337 338 338 340 339 338 339 340 339 338 339 339 340 340 338 338 338 337 338 337 336 335 336 337 336 335 335 335 335 335 335 336 336 337 338 337 337 337 336 336 337 336 335 336 335 334 335 335 334 334 335 334 335 335 335 336 333 332 332 331 331 327 324 327 327 324 325 325 326
313 312 312 313 313 313 313 313 313 313 313 312 314 314 315 317 316 319 323 325 329 329 332 335 337 340 339 339 338 338 340 340 339 338 339 339 339 340 340 341 342 342 340 340 339 339 338 338 337 337 336 336 336 335 334 333 333 334 334 334 334 335 336 335 336 336 336 336 336 335 335 334 334 333 334 334 334 334 334 333 334 334 334 334 333 332 333 331 330 327 325 326 324 324 324 325 327
313 312 312 313 312 313 314 313 313 314 312 311 313 311 313 316 315 319 323 324 328 329 331 332 336 339 339 339 338 338 339 338 337 337 337 337 338 339 340 342 342 340 339 340 340 339 338 338 337 336 336 336 336 336 334 333 333 333 332 333 333 334 334 334 335 335 335 335 334 334 334 333 332 333 333 334 334 334 334 334 334 333 333 333 333 333 332 331 330 328 327 327 324 324 325 326 328
313 313 312 313 311 311 314 314 313 314 312 313 314 310 313 315 315 320 323 324 327 329 330 331 334 337 337 338 336 335 336 335 335 335 336 336 336 338 339 342 341 339 339 340 340 338 337 337 336 335 335 336 335 335 334 332 333 332 331 331 332 331 331 331 332 333 333 333 333 333 333 332 332 332 333 333 334 334 334 334 334 333 333 333 333 333 333 331 331 329 328 328 328 327 326 327 328
314 311 310 311 310 311 315 315 315 315 313 314 314 310 313 315 314 320 323 323 325 326 329 332 334 336 336 337 335 334 333 334 334 334 334 334 334 337 339 339 340 339 340 340 339 338 337 335 334 334 334 335 334 333 333 332 332 331 330 330 330 330 329 329 329 330 330 330 331 331 331 331 331 331 332 332 332 333 334 334 334 334 333 333 333 333 333 331 331 331 330 330 330 329 329 329 327
313 312 309 311 310 310 313 315 316 315 314 315 313 312 314 315 315 319 323 323 323 325 328 332 334 335 336 335 334 333 333 332 331 332 332 331 331 334 336 337 339 340 340 340 338 337 337 335 334 335 335 334 333 333 332 331 331 330 329 329 329 328 328 327 327 327 327 327 328 329 328 328 329 329 330 330 330 331 332 333 333 333 333 333 333 333 333 332 332 332 332 332 332 332 330 330 329
311 312 311 312 312 311 311 313 317 315 315 316 314 315 315 315 315 317 321 323 323 324 327 332 334 335 335 334 334 333 332 331 329 331 332 329 329 331 334 336 338 338 339 340 339 338 338 336 335 335 334 333 332 333 332 331 330 329 328 327 327 327 326 326 326 326 326 326 327 327 327 327 327 328 328 329 330 331 331 331 331 332 333 333 333 333 333 333 333 332 333 333 333 332 331 331 330
311 312 311 311 312 311 311 314 317 316 315 316 315 315 315 316 315 314 319 322 323 324 326 330 333 334 334 333 333 333 332 331 330 331 331 329 328 328 331 334 335 335 336 339 339 338 338 337 336 335 334 333 333 333 332 330 329 328 327 326 326 325 325 326 326 326 325 325 326 326 326 326 326 326 327 328 328 328 329 330 330 330 331 332 333 333 333 333 333 332 333 333 334 332 331 332 332
313 313 312 311 310 311 313 316 316 317 315 315 315 315 315 317 315 315 317 322 325 324 327 330 332 332 333 332 332 333 332 331 331 331 330 329 327 326 328 331 332 332 333 336 338 338 338 335 335 334 333 334 332 330 329 328 326 326 325 325 323 323 324 325 325 325 324 325 325 325 325 325 324 325 325 326 326 326 327 328 328 328 329 331 332 333 332 332 333 333 332 333 334 333 333 333 331
315 315 313 312 311 311 315 316 317 318 316 315 317 317 316 316 317 316 317 322 324 324 327 329 329 330 331 332 333 333 332 331 331 330 330 329 328 326 327 329 330 330 330 333 335 337 336 333 333 333 332 331 329 327 326 326 324 324 323 323 322 322 323 325 325 324 324 324 323 323 322 323 323 323 323 324 324 325 325 325 327 328 328 329 330 331 331 332 332 332 333 333 333 333 333 332 330
316 315 313 312 312 312 316 318 317 318 317 315 317 316 315 318 317 317 317 320 323 324 327 328 327 327 328 329 331 332 333 330 329 329 329 328 328 326 326 328 329 328 329 330 332 333 333 332 332 332 330 328 328 327 326 324 323 322 322 321 321 321 323 323 323 324 324 323 322 321 321 321 321 322 322 323 323 324 324 325 325 327 327 328 329 330 330 331 331 331 332 332 331 332 332 331 330
316 315 313 312 312 314 316 319 319 318 316 315 317 316 315 318 318 318 318 318 321 324 326 327 327 326 325 326 328 331 333 331 328 327 329 328 328 327 325 326 328 328 328 328 329 330 331 331 331 331 329 327 328 327 325 324 323 323 322 321 321 321 323 324 323 323 323 322 321 321 321 321 321 321 322 322 323 323 323 323 324 325 326 326 327 328 329 329 330 330 331 332 331 331 331 331 330
316 315 312 312 314 314 313 317 319 319 318 317 317 315 315 318 318 318 318 318 322 324 324 326 326 326 326 325 326 328 331 333 330 328 328 328 328 328 326 326 327 328 327 327 328 329 330 329 330 331 328 327 328 327 326 324 323 323 324 323 323 323 323 324 323 322 321 321 320 321 321 321 321 321 321 321 321 322 322 322 321 322 323 324 324 325 326 327 328 329 329 331 331 330 331 330 329
317 317 314 313 316 315 313 317 319 319 320 319 317 313 313 316 317 317 319 319 320 320 319 320 322 323 325 325 326 326 328 331 331 330 328 328 328 328 327 326 327 328 328 327 328 328 328 327 330 330 328 328 328 326 325 324 321 322 324 323 323 323 323 323 322 321 321 320 320 320 320 321 322 321 321 321 320 321 321 321 321 321 321 321 321 321 323 324 325 326 327 328 329 330 330 329 329
315 317 316 315 317 316 316 318 317 314 315 318 317 311 310 315 316 317 319 318 317 317 317 317 318 319 320 322 324 325 326 327 329 330 330 329 328 328 327 326 326 327 327 327 327 327 325 326 328 328 328 328 327 325 324 322 321 322 322 321 321 321 321 321 321 321 320 320 319 319 320 321 321 321 321 321 320 320 320 321 320 320 320 320 320 319 320 321 321 323 324 325 326 328 329 329 329
312 317 317 316 317 318 318 317 315 311 312 317 318 311 310 313 315 317 318 317 317 318 317 317 317 317 317 319 320 322 324 326 327 328 328 329 330 329 328 327 327 326 326 327 327 326 325 326 328 327 326 327 327 325 322 320 322 322 321 321 320 319 319 320 321 320 320 320 319 318 320 321 321 321 321 321 321 320 320 320 320 319 319 319 319 320 320 320 321 321 321 322 323 324 325 327 327
314 319 319 316 317 318 318 317 315 312 313 317 317 314 311 310 313 318 317 316 318 318 318 317 316 316 317 318 318 319 321 323 325 326 327 329 330 330 329 328 327 326 326 327 327 326 325 327 327 325 325 326 326 324 321 321 321 321 320 320 319 317 318 320 320 320 321 319 319 319 320 320 320 320 320 320 320 320 320 320 319 318 317 317 317 317 318 318 319 319 320 321 321 321 322 323 323
316 320 320 317 318 319 318 316 314 314 314 313 313 314 312 310 313 317 316 315 316 317 318 317 317 317 317 317 318 319 319 320 321 322 324 327 329 330 328 328 327 326 327 327 326 325 326 327 326 325 324 325 326 323 320 321 321 321 320 319 317 317 319 319 318 319 320 320 319 319 318 319 320 320 319 318 317 317 317 317 316 315 314 314 313 313 314 314 315 316 317 318 319 320 320 320 321
319 318 317 317 318 318 318 316 313 314 314 312 312 314 313 310 311 315 315 314 315 317 317 316 317 317 317 318 319 318 317 317 317 317 319 322 327 328 328 329 327 326 327 326 326 325 326 327 325 325 324 324 325 322 319 321 322 321 321 319 317 317 318 318 317 319 320 320 320 319 318 318 318 318 317 316 315 315 315 315 315 314 314 313 313 313 313 313 314 314 315 315 316 317 317 318 319
317 318 317 316 317 316 316 314 312 313 313 312 313 314 313 311 311 313 316 316 316 317 317 317 318 317 317 318 317 316 316 316 316 316 316 318 322 326 328 328 327 328 328 326 325 325 326 326 325 324 323 323 325 322 320 321 322 322 321 320 319 318 318 317 317 320 320 320 320 318 318 318 318 317 315 315 315 315 315 315 315 314 314 313 313 314 314 314 314 313 314 314 314 314 314 314 315
316 317 315 314 314 314 313 313 313 313 312 313 314 314 314 312 311 314 316 316 316 317 317 318 319 317 317 317 315 315 315 316 315 316 317 317 319 324 328 327 327 328 327 325 325 325 325 325 324 325 324 323 324 323 320 321 323 322 321 321 320 319 319 318 317 319 320 320 319 318 317 317 317 317 316 315 315 316 316 316 316 315 314 314 314 314 313 314 314 314 314 313 313 313 313 313 313
316 315 313 313 312 313 313 312 312 312 312 314 314 314 314 312 312 316 317 316 317 317 317 316 316 316 316 316 315 316 316 317 316 316 318 319 320 325 327 326 326 327 327 325 325 325 324 325 324 324 323 323 324 324 321 321 323 322 322 323 321 320 320 318 317 319 319 318 318 318 317 316 317 317 317 316 316 317 317 316 316 316 315 314 314 313 313 313 314 314 314 313 313 313 313 313 312
314 313 312 313 312 313 314 311 310 310 312 315 315 314 314 311 313 317 317 316 315 315 315 314 314 314 315 315 315 316 317 317 316 317 319 320 322 325 326 325 326 327 326 325 325 325 324 324 325 324 323 323 324 324 323 322 322 322 322 323 322 321 321 319 317 318 319 318 318 319 317 316 316 317 317 317 317 317 317 317 317 316 315 314 313 313 313 313 313 313 313 313 313 313 313 312 312
314 313 312 312 312 312 313 311 310 310 312 315 315 314 312 311 315 317 316 315 313 312 312 312 313 313 314 315 315 317 318 318 318 318 320 322 324 325 324 325 326 326 325 325 325 325 324 324 324 324 324 324 324 324 323 323 322 322 323 323 322 322 321 319 318 317 319 319 318 319 317 315 316 316 316 318 318 317 318 318 318 317 315 314 313 313 313 313 313 313 313 313 313 313 312 312 312
313 314 312 312 312 312 312 313 313 311 311 314 314 313 312 313 316 315 314 313 311 311 311 311 313 313 314 315 315 317 318 319 320 319 319 322 324 325 324 325 326 325 325 325 325 324 324 323 323 324 323 324 324 324 323 323 323 323 323 323 323 322 321 320 319 318 320 320 319 319 318 316 316 316 317 318 318 318 319 318 318 317 316 315 313 313 313 313 313 313 313 313 313 312 312 312 312
313 312 311 312 313 312 312 314 315 312 312 313 312 312 312 313 315 315 313 312 311 311 311 311 313 313 314 315 315 316 317 318 320 319 319 321 323 324 324 325 325 324 325 325 325 325 324 324 323 323 323 323 323 323 323 324 323 323 324 323 323 322 321 320 320 321 322 321 320 319 319 318 317 316 318 319 318 318 319 318 318 318 316 315 313 313 312 312 312 312 312 312 313 312 312 312 312
312 311 311 312 313 312 312 313 313 312 312 312 311 313 312 311 313 315 314 313 312 311 311 311 312 313 313 313 314 315 317 317 318 319 320 321 323 324 324 324 324 324 324 324 324 325 324 324 323 323 323 322 322 322 323 323 324 324 324 324 323 322 322 321 321 322 323 322 321 320 319 320 318 318 319 319 317 318 319 318 318 318 317 315 313 313 312 312 312 312 312 312 312 312 312 312 311
311 311 312 312 312 312 312 312 313 313 313 313 312 313 312 310 312 314 314 314 313 311 311 311 312 313 312 313 313 314 316 317 317 318 318 320 322 323 323 323 323 323 324 324 324 324 324 324 324 323 323 322 320 321 322 322 323 324 324 324 324 323 322 322 321 322 323 322 321 320 320 321 320 319 318 317 317 318 319 318 318 318 317 315 314 313 312 312 312 312 312 312 311 311 312 311 311
311 311 311 311 312 312 312 313 313 312 313 314 313 312 312 311 313 314 314 315 313 312 312 311 311 312 312 313 314 314 315 316 316 316 317 318 320 321 321 321 321 322 322 322 322 322 322 323 322 322 322 322 321 321 321 321 322 323 323 323 324 323 322 322 322 322 323 323 322 321 320 321 321 320 318 317 317 318 318 318 318 318 317 316 314 313 313 312 312 312 312 312 311 311 311 311 311
312 311 312 312 313 313 312 313 312 312 313 313 314 313 311 313 316 315 315 315 313 312 312 311 311 311 311 313 314 314 315 316 315 315 315 316 318 319 319 320 320 321 321 321 322 321 321 321 321 321 321 322 322 321 321 321 321 321 322 322 322 323 323 322 322 322 323 323 322 321 321 321 321 320 319 318 317 317 318 318 318 318 317 316 314 313 313 312 312 312 312 312 311 311 311 311 311
312 312 312 312 312 313 313 312 311 312 312 312 313 312 312 314 317 316 315 314 313 312 312 311 310 311 312 313 314 314 314 315 315 314 314 314 316 316 317 318 318 319 320 321 321 322 322 322 322 321 321 321 322 322 322 321 321 321 321 322 321 322 322 322 322 322 323 322 322 321 321 321 322 321 320 319 318 318 318 318 318 317 317 316 314 314 313 312 312 312 312 311 311 310 310 310 310
Wind_Speed
2 3 4 3 4 5 6 5 4 3 5 6 6 4 3 2 3 4 3 2 2 1 2 1 3 6 3 3 7 4 7 2 2 0 1 6 10 13 15 19 22 21 20 21 21 21 21 22 23 23 22 22 22 21 20 19 19 18 17 17 17 17 17 18 18 18 19 18 17 16 16 16 16 17 17 17 16 15 14 14 14 14 14 13 13 12 11 11 11 11 10 9 9 9 9 9 9
3 4 4 4 5 6 3 2 5 3 6 7 6 3 3 3 4 5 1 2 3 3 2 3 6 6 1 0 5 5 6 9 10 7 6 11 13 14 17 19 21 21 20 21 21 20 21 22 23 23 22 23 22 21 20 19 19 18 17 17 17 18 18 18 18 18 18 17 17 16 17 18 18 18 17 16 15 14 13 13 13 12 12 12 12 12 11 11 11 10 10 9 9 10 9 9 8
4 4 4 5 6 6 2 3 6 5 6 7 4 3 2 3 3 2 3 3 4 3 3 5 6 5 3 4 6 5 4 8 10 10 9 13 13 15 18 18 19 20 19 21 21 18 20 22 23 23 23 22 22 22 21 20 19 18 17 16 17 18 18 18 17 17 17 17 17 17 18 18 18 18 17 15 15 14 13 12 12 12 11 11 11 12 12 11 11 10 10 10 9 10 10 9 8
3 4 6 6 5 5 4 5 6 6 6 6 3 5 1 3 3 4 2 3 5 2 4 6 6 2 3 3 5 3 6 6 9 10 8 10 14 17 19 18 18 18 17 19 20 18 18 21 22 22 23 22 22 22 21 20 19 19 17 16 16 17 17 17 17 17 17 18 18 18 17 17 18 17 16 16 16 16 15 14 13 12 12 12 11 11 11 12 11 11 10 10 10 10 10 9 8
3 4 6 7 4 2 4 4 4 7 6 5 3 4 4 3 4 3 5 4 4 2 3 5 4 3 2 4 3 2 7 7 8 10 10 12 15 19 19 18 17 17 16 16 18 19 20 22 21 21 22 22 22 22 21 21 20 19 18 17 16 17 17 17 17 17 17 18 17 17 17 16 17 16 16 16 16 15 15 14 13 12 12 12 12 12 12 12 12 11 10 11 11 10 10 10 9
4 5 6 7 3 2 4 5 5 7 3 3 4 4 5 4 5 5 6 3 3 1 3 3 1 5 2 6 6 4 4 4 8 10 11 15 17 18 18 18 17 17 16 15 16 17 21 22 21 21 21 22 22 22 22 21 21 20 19 18 17 17 17 17 17 17 17 17 17 16 16 16 15 14 14 14 14 13 13 12 12 11 10 11 12 13 13 13 12 11 11 12 11 11 11 11 10
5 6 5 6 3 2 6 6 6 6 2 1 4 4 5 5 5 2 4 4 5 3 3 2 2 5 4 4 4 7 3 2 8 10 14 18 18 18 18 17 17 17 16 15 14 17 21 22 21 21 21 22 22 21 22 21 21 20 19 19 17 17 16 16 16 17 16 16 16 15 15 15 14 14 13 13 12 12 12 12 11 10 9 9 10 12 13 14 13 12 13 12 11 11 11 11 10
6 4 2 5 4 4 7 7 6 4 2 1 3 2 4 3 1 3 2 4 4 4 4 3 4 4 4 3 2 6 5 7 11 15 17 19 18 18 17 17 18 17 15 14 14 16 19 21 21 20 21 21 21 21 21 21 20 20 20 19 18 18 17 16 16 16 16 15 15 14 14 13 13 13 12 12 12 12 12 12 11 10 8 8 9 10 12 13 13 14 13 11 11 11 11 11 10
7 5 2 5 5 5 6 7 5 3 2 3 4 2 1 3 4 4 4 4 4 4 5 5 5 4 5 5 4 7 8 11 16 18 18 19 18 17 17 16 17 17 15 15 14 15 17 19 20 20 21 20 20 20 20 21 20 20 19 19 18 18 17 17 16 15 15 15 14 13 13 13 13 12 12 12 12 12 11 11 11 9 8 8 8 10 12 13 14 14 12 11 11 11 11 12 11
6 4 3 4 5 6 7 6 3 2 4 5 4 3 3 4 5 5 6 4 5 6 4 5 4 3 7 8 7 6 9 15 18 18 17 17 18 17 16 16 17 17 16 15 14 15 15 18 20 20 20 20 20 19 20 20 20 19 19 19 18 18 17 16 16 15 15 14 14 13 12 13 13 12 12 12 12 11 10 10 10 9 8 7 8 10 12 12 14 13 11 10 10 11 12 12 11
5 4 3 4 6 7 7 5 3 2 3 5 4 3 2 3 5 6 8 5 5 6 5 5 6 7 8 8 6 6 11 16 17 17 16 16 17 17 16 16 16 16 16 15 14 15 15 16 18 18 18 19 19 19 19 19 19 19 19 18 18 17 16 16 15 15 14 14 13 12 12 12 13 13 12 12 12 11 10 9 10 10 9 8 7 11 12 11 12 11 10 10 10 12 12 11 10
5 4 4 6 6 6 4 3 2 2 4 6 4 3 2 2 5 7 8 7 7 7 7 6 6 9 8 7 5 8 13 14 16 17 16 15 17 17 16 15 15 15 15 15 14 15 16 15 15 17 18 18 19 18 17 17 18 18 18 18 17 16 15 15 15 14 14 14 13 12 12 12 12 12 12 12 12 11 10 9 10 10 9 8 7 11 13 11 11 10 10 10 10 11 11 10 8
5 3 5 6 5 4 4 4 3 3 5 5 4 6 3 4 5 7 8 7 8 10 8 6 6 8 6 8 7 9 13 13 16 16 16 16 15 16 16 15 15 15 15 14 14 15 15 14 14 15 17 17 18 18 17 17 16 16 17 18 17 15 14 14 13 13 13 14 14 12 11 11 11 12 12 12 11 11 11 10 10 10 10 9 7 9 12 12 11 10 10 9 9 11 10 8 6
4 3 5 5 3 4 4 5 3 4 4 5 6 5 3 4 6 7 7 9 9 7 5 7 7 7 5 7 7 8 12 16 16 15 16 16 15 15 15 15 15 14 14 13 14 14 14 14 13 14 15 16 17 18 19 18 17 18 19 18 17 15 14 13 13 12 12 12 12 12 11 11 11 11 12 12 12 11 11 11 10 10 9 9 8 8 10 11 11 10 10 9 10 11 9 6 5
4 2 4 6 3 5 5 4 3 5 3 8 6 3 4 4 4 6 7 11 6 5 5 6 5 4 5 7 8 10 15 19 18 17 17 16 16 16 15 15 15 14 13 13 13 13 13 12 13 13 13 14 16 16 18 19 19 19 19 18 17 16 15 14 13 12 11 11 11 11 10 10 10 10 11 12 11 11 11 10 10 9 9 9 8 8 8 10 10 10 9 9 11 11 8 6 4
4 3 4 6 5 5 4 3 4 4 2 6 3 3 7 5 2 6 4 8 2 7 6 5 3 0 3 6 9 17 21 22 20 18 19 18 17 16 16 15 15 14 13 12 12 11 11 12 12 12 12 12 14 14 16 18 18 17 17 17 18 17 17 16 15 14 13 11 10 10 10 10 9 9 10 10 10 10 10 9 10 9 9 9 9 8 8 9 9 9 9 9 10 10 9 7 6
3 4 5 6 5 5 3 4 4 1 2 3 3 5 9 7 1 4 2 7 6 8 7 4 4 3 2 7 17 24 24 22 21 21 20 18 17 16 15 16 15 14 12 11 11 11 11 11 11 11 11 10 10 12 14 15 16 17 16 17 18 18 18 17 16 15 13 11 11 11 10 10 9 9 9 10 10 10 9 9 9 9 9 8 8 8 8 9 9 10 10 10 10 10 9 8 7
4 5 6 6 5 3 1 3 2 4 2 3 7 8 10 10 1 2 3 9 9 10 8 5 6 6 8 15 22 25 24 23 22 20 19 16 16 16 15 15 15 14 13 12 10 10 10 10 10 10 10 11 9 10 12 13 15 16 16 16 17 18 17 15 14 13 11 10 10 10 10 9 9 9 9 9 10 9 9 9 9 9 8 8 7 7 7 8 9 10 10 10 10 10 9 7 6
6 4 5 6 5 2 2 3 4 5 6 8 9 8 10 9 2 1 5 10 12 11 10 9 9 9 11 18 21 23 23 23 22 18 17 16 16 16 15 15 14 14 14 12 12 10 10 10 10 10 10 11 10 9 10 11 13 14 14 13 14 16 15 14 12 11 11 10 9 9 9 8 8 8 8 10 10 9 9 8 8 8 8 7 8 7 7 7 8 9 9 9 9 9 8 7 7
6 4 6 5 3 3 2 4 6 6 8 10 9 10 9 4 1 2 6 8 12 12 11 12 12 12 14 17 18 22 22 21 20 18 17 16 16 16 15 15 15 15 14 13 13 11 10 10 9 9 10 10 11 10 10 10 11 13 13 12 12 13 13 12 11 10 10 10 10 10 8 7 7 6 7 9 9 8 9 9 8 8 8 7 8 8 8 8 8 9 10 9 8 8 8 8 8
4 4 7 4 2 4 5 4 6 7 8 10 9 10 7 2 2 5 6 7 10 12 10 9 12 15 15 16 16 20 21 20 19 18 17 16 16 15 15 15 15 15 15 14 13 12 11 11 10 9 10 10 10 10 10 10 10 10 11 11 11 11 11 12 11 11 10 9 10 9 8 7 6 6 6 7 7 7 8 9 9 8 8 8 8 8 8 8 8 9 10 10 9 9 9 8 7
3 7 9 6 4 6 5 4 5 6 7 8 8 9 6 3 5 6 7 7 4 5 6 4 7 14 16 17 16 17 18 18 18 18 17 16 15 14 14 14 14 15 15 14 13 13 12 11 10 9 9 9 9 9 9 10 10 9 9 9 10 10 10 11 11 10 10 10 9 8 8 8 6 6 6 7 7 8 8 8 9 8 8 8 9 9 8 8 8 8 9 9 9 9 9 8 7
6 7 7 7 7 7 6 6 5 5 7 8 7 7 6 6 6 4 8 4 4 3 5 4 7 13 15 17 16 16 17 17 17 17 17 16 16 14 15 15 15 15 14 13 13 13 12 11 10 10 9 9 8 8 8 9 9 9 9 9 9 9 9 9 10 10 10 10 10 9 9 8 7 6 6 7 8 9 9 8 8 8 9 9 9 8 8 8 8 7 8 8 8 8 8 9 8
8 7 4 6 7 7 8 7 6 6 9 9 8 7 6 7 3 3 7 1 6 3 5 8 11 13 14 15 16 16 16 16 16 16 16 16 15 15 15 15 15 14 13 13 13 12 11 11 10 9 9 9 8 7 7 7 7 8 9 9 9 8 8 8 9 9 9 10 11 10 9 8 8 7 7 9 10 9 8 7 8 8 8 8 8 8 8 8 7 7 7 7 8 8 9 9 10
9 8 5 6 5 6 7 7 8 8 8 6 6 7 6 5 2 2 5 4 4 3 7 11 14 14 14 14 16 16 14 15 16 15 15 15 15 15 15 16 15 13 13 13 12 11 10 10 10 9 8 8 7 7 7 6 7 8 8 8 7 7 8 7 7 8 8 10 11 10 8 8 8 8 9 10 9 7 6 7 9 9 9 8 8 8 8 7 7 7 7 7 8 8 9 10 10
6 8 6 6 7 6 6 6 8 6 4 3 4 5 3 2 3 3 4 5 5 5 9 12 14 15 14 14 14 14 14 15 16 16 15 15 15 16 15 15 15 14 14 14 12 10 10 9 9 8 7 6 6 5 5 5 5 6 7 7 7 7 6 6 6 7 8 8 8 9 9 9 9 10 12 11 7 6 7 8 8 8 9 10 10 8 7 7 7 6 6 7 9 9 9 10 11
1 7 7 9 9 6 5 6 6 4 3 4 5 3 3 4 6 3 6 6 5 6 9 12 13 14 15 15 14 13 14 16 17 17 15 15 16 17 16 16 15 14 14 14 12 10 9 9 8 8 7 6 5 4 4 3 3 4 5 5 6 6 5 6 6 6 7 7 8 11 11 11 12 12 13 11 8 7 7 7 6 7 8 9 11 10 8 8 8 7 6 7 8 9 9 9 10
3 7 8 9 7 4 4 4 4 5 4 4 6 3 5 6 4 2 6 6 5 7 9 11 12 13 14 15 14 12 13 16 17 16 15 15 15 17 17 16 15 14 14 14 12 10 10 9 8 8 7 6 5 4 4 3 3 3 3 3 4 5 5 5 6 6 6 6 8 10 9 7 9 12 12 9 6 7 9 9 8 8 8 8 12 13 10 9 8 8 7 8 8 8 10 10 9
6 6 7 7 5 4 2 2 3 4 3 2 5 5 7 6 4 6 5 5 6 7 8 11 11 11 13 13 12 11 12 15 15 14 15 14 13 15 16 15 15 14 14 14 12 12 11 10 9 8 7 6 5 5 4 3 3 3 3 3 3 4 4 4 5 5 5 5 5 5 5 4 5 9 10 8 5 6 10 11 8 8 9 12 15 15 12 10 9 8 8 10 10 10 11 11 9
6 5 6 5 6 5 4 3 5 4 2 2 6 6 7 7 7 6 4 5 7 8 8 10 10 10 11 12 11 11 12 13 13 13 14 12 11 14 15 14 15 14 13 13 13 13 11 9 8 8 7 7 6 5 4 3 3 3 3 3 3 3 2 3 4 4 4 4 4 4 4 5 7 7 6 6 5 6 8 8 7 7 9 12 15 15 14 11 11 11 10 11 12 11 12 12 10
4 4 4 4 5 6 8 3 5 5 3 3 7 6 5 7 6 5 4 4 6 7 8 9 9 9 10 10 11 11 11 11 12 13 12 11 11 13 13 13 14 12 12 13 13 13 11 9 9 8 8 7 5 4 4 4 4 3 3 3 3 3 2 2 3 4 3 4 4 4 3 4 7 7 6 5 6 6 7 7 6 7 9 10 11 13 15 13 12 12 11 11 12 12 12 12 12
4 4 4 4 4 6 10 5 2 4 4 2 6 6 4 6 5 4 3 4 5 6 7 8 9 10 9 10 10 10 10 11 12 12 10 10 10 12 12 13 14 11 11 13 13 13 11 9 9 8 8 7 6 5 5 4 3 3 3 3 4 4 2 2 2 3 3 3 4 4 4 3 2 5 6 8 8 7 7 6 7 8 8 8 8 11 15 15 13 12 11 10 11 12 12 12 13
5 4 2 3 3 5 8 6 5 4 3 3 5 6 2 5 4 4 3 4 5 6 6 8 8 9 9 9 10 10 10 10 11 12 11 10 10 10 11 13 12 10 10 12 12 12 12 11 10 9 8 8 7 7 6 5 5 4 4 5 5 4 3 2 3 3 3 4 4 5 5 4 3 4 4 7 8 8 7 5 6 7 7 7 7 9 13 14 12 12 12 11 10 11 11 11 11
5 3 1 2 3 2 6 7 6 1 3 3 3 6 1 3 1 2 3 4 5 6 6 7 7 8 8 9 9 10 10 10 11 12 13 11 11 11 10 11 11 10 10 12 11 11 11 11 10 9 9 8 8 8 8 7 7 6 5 5 5 4 3 3 3 4 4 4 3 4 4 4 3 3 3 3 5 6 6 6 5 5 6 6 6 7 10 12 13 12 12 12 11 10 10 10 10
2 3 2 3 3 3 2 5 5 2 3 3 3 6 2 1 2 2 3 4 5 6 5 5 6 7 8 8 10 10 10 10 11 13 14 12 11 12 10 10 11 11 12 12 11 10 11 11 11 10 9 9 9 9 9 8 7 6 5 5 5 4 4 4 4 4 4 4 4 4 3 3 3 3 3 3 3 4 4 5 5 5 5 5 5 6 7 9 12 13 13 11 11 11 10 9 9
2 1 3 3 4 4 2 5 6 4 3 4 3 4 2 1 1 2 3 4 6 7 5 4 5 7 8 9 9 10 10 9 11 13 15 14 12 13 12 11 12 13 14 15 13 12 11 11 11 11 10 10 10 10 9 8 7 6 5 5 4 4 4 5 4 4 5 4 4 4 3 3 3 3 3 3 3 3 2 3 4 4 5 5 6 6 6 7 9 12 13 12 11 11 10 10 10
3 3 4 5 4 4 3 4 4 4 5 4 2 3 4 2 1 2 3 4 6 8 8 6 6 7 7 9 9 10 9 8 11 13 15 16 14 13 13 11 12 13 14 16 15 14 13 12 12 12 12 12 11 10 9 8 7 6 5 5 5 5 6 6 5 5 5 5 5 4 4 4 3 3 3 3 3 2 1 1 1 2 3 5 5 5 5 6 7 9 10 12 13 13 12 12 12
4 5 6 6 6 4 5 3 3 3 5 3 2 5 6 3 1 3 4 6 8 9 9 8 8 8 7 8 9 9 8 8 11 12 15 17 15 14 14 13 14 15 15 16 16 15 14 13 13 13 13 13 11 10 9 7 6 5 5 5 5 6 6 5 6 6 5 5 5 5 5 4 4 3 3 3 3 2 2 2 2 2 1 1 2 3 3 4 5 6 7 10 12 12 12 13 12
5 5 6 5 5 3 5 4 3 1 4 3 1 6 6 3 2 4 5 6 6 7 8 8 8 8 7 7 8 8 9 10 11 11 14 17 16 16 16 14 15 16 16 17 16 16 16 14 13 13 14 14 12 10 9 7 6 5 5 6 5 5 5 5 6 6 6 6 6 5 5 5 4 4 4 4 4 3 3 3 4 4 4 4 3 3 3 2 2 3 4 6 7 8 8 9 11
6 5 6 5 2 3 3 5 4 1 3 4 3 6 7 5 5 6 6 5 4 4 6 6 6 7 7 7 7 8 10 11 12 12 13 16 17 18 18 17 17 16 16 17 17 17 17 15 15 14 15 14 12 12 9 8 8 7 6 7 6 5 6 6 6 6 6 6 6 5 5 5 5 5 5 5 5 4 4 4 4 4 5 4 4 4 5 4 3 3 2 2 3 5 5 6 8
6 6 7 5 2 4 4 2 3 3 3 3 5 7 7 6 8 7 7 6 5 5 5 5 6 7 7 8 8 8 9 10 11 12 14 15 18 19 20 19 18 18 17 18 19 19 18 17 16 15 15 15 13 13 12 10 11 10 8 8 7 6 6 7 6 7 6 6 6 5 6 6 6 6 6 6 6 5 5 4 4 4 4 3 3 3 3 3 3 3 3 2 1 2 3 4 5
5 7 9 7 4 5 4 2 3 5 5 2 4 7 4 4 6 5 6 7 7 7 6 6 5 7 8 9 10 9 9 10 10 12 14 16 18 20 20 20 20 20 20 20 20 21 20 18 17 17 15 15 14 15 15 12 11 12 11 10 9 8 7 7 6 7 6 6 6 6 7 7 7 7 6 6 6 5 5 5 4 4 4 3 3 2 3 3 3 3 2 2 2 1 2 3 3
4 5 8 9 7 6 6 5 5 6 4 2 2 7 4 3 5 5 5 6 8 7 6 5 5 6 7 8 8 8 8 9 10 12 13 14 17 19 20 22 23 23 21 20 19 21 21 18 18 18 16 15 15 16 16 13 12 12 12 11 10 9 8 7 7 7 7 6 7 7 7 7 7 7 6 6 5 5 5 5 5 5 4 4 4 3 3 3 3 3 3 3 3 2 0 2 3
1 2 5 9 8 7 7 7 6 5 3 2 5 6 6 6 4 5 5 7 8 8 6 6 5 5 5 5 6 6 6 6 7 10 12 14 16 18 20 21 22 22 20 19 20 21 21 18 18 19 17 15 16 18 18 15 13 13 12 10 9 8 7 8 8 8 7 7 7 7 7 7 7 6 6 5 5 5 5 6 6 6 6 6 5 5 5 4 4 4 5 4 3 3 2 1 2
1 3 2 5 5 6 6 7 6 4 3 5 6 5 6 7 3 5 6 8 9 8 6 5 5 4 3 3 4 5 6 6 7 8 10 12 15 19 20 20 21 21 20 20 21 22 21 19 19 19 18 16 17 19 19 16 13 13 12 11 10 8 7 8 9 8 8 8 7 7 7 7 7 6 6 6 6 7 7 8 8 7 7 6 6 6 6 5 5 5 5 5 4 4 4 2 1
2 2 3 4 4 5 5 6 6 3 5 8 5 4 6 7 4 6 7 7 7 5 4 4 4 3 2 1 3 5 6 6 7 8 9 11 14 17 19 20 21 21 20 19 19 21 21 19 20 20 20 17 17 21 21 17 15 13 13 12 11 10 8 7 8 9 9 8 8 8 7 7 7 7 7 7 8 8 8 8 8 7 7 6 6 7 6 6 6 6 6 6 6 5 5 4 3
3 5 5 5 5 5 5 5 4 5 7 7 3 4 5 6 5 4 3 0 1 0 2 3 3 1 1 3 4 5 6 6 7 8 8 11 13 15 17 18 20 20 19 19 19 20 21 20 21 21 21 19 18 21 22 19 17 15 13 13 13 12 10 8 8 9 9 9 8 8 7 7 7 7 8 8 8 8 8 7 7 7 7 6 6 6 6 6 6 6 6 6 6 6 5 5 5
5 6 6 6 5 4 5 5 4 6 7 2 4 3 6 7 5 2 2 3 3 1 2 1 1 3 5 6 6 7 7 7 7 7 6 8 11 14 16 18 19 18 18 19 19 20 20 20 21 21 21 20 18 21 23 20 18 17 15 14 14 13 12 11 10 10 10 10 9 9 8 8 8 8 8 8 8 8 7 7 7 6 6 6 6 6 6 6 6 6 6 6 6 6 6 5 5
6 6 6 6 6 5 6 6 5 7 4 4 5 3 5 7 4 2 4 3 2 0 2 2 4 5 6 7 7 6 6 6 6 5 4 3 6 10 14 16 18 17 18 19 18 19 19 20 21 21 22 21 19 20 23 21 19 18 16 15 14 14 13 12 11 10 11 10 10 10 9 9 9 9 9 9 9 9 8 7 6 5 6 6 6 6 6 6 6 6 6 6 6 6 6 6 6
7 7 6 6 6 6 7 6 6 7 2 4 4 2 5 7 2 4 4 3 3 2 1 2 4 5 6 6 6 6 6 6 5 4 3 0 3 6 10 13 15 15 16 17 17 18 18 18 20 21 21 21 20 20 21 21 20 20 18 16 15 14 13 14 12 11 11 11 10 10 10 9 9 10 10 10 10 10 8 7 7 6 6 7 6 6 6 5 5 5 6 6 6 6 6 7 6
7 6 6 7 6 6 7 6 6 7 2 4 5 3 5 5 1 4 3 4 3 2 2 2 3 3 4 5 6 7 7 7 6 5 4 2 2 5 8 9 10 11 13 15 15 16 17 17 18 20 20 20 20 20 21 21 21 20 18 17 15 14 13 13 13 12 11 11 10 10 11 10 9 9 10 10 11 11 9 9 8 7 7 7 7 6 6 5 5 5 5 6 6 6 6 6 6
5 5 7 7 5 6 5 3 3 4 4 3 4 4 4 1 4 4 4 5 5 4 3 3 3 4 4 5 7 7 7 7 7 6 5 4 2 5 6 8 8 9 12 13 13 14 15 16 16 17 17 17 17 19 19 20 20 19 18 17 16 15 14 13 13 12 12 12 11 11 11 11 10 9 10 11 12 11 10 10 9 8 8 7 7 6 6 6 5 5 5 5 5 5 6 5 5
2 5 7 3 2 6 5 1 2 1 7 7 4 6 5 2 4 7 7 7 6 6 5 5 5 6 6 7 7 7 8 9 9 7 6 5 4 4 5 6 6 8 10 11 12 13 14 15 15 15 15 14 15 17 17 17 17 17 17 18 18 17 16 16 14 13 13 13 13 12 11 11 11 10 10 12 13 12 11 11 10 9 9 8 8 7 6 6 6 5 5 5 5 5 5 5 4
4 5 4 1 1 4 5 5 3 5 8 7 5 8 8 6 4 7 9 8 8 7 6 6 6 6 7 7 7 8 9 9 10 10 8 7 7 6 5 5 5 6 7 8 9 9 10 12 13 14 15 15 15 15 16 16 16 16 16 18 19 19 18 17 16 14 13 13 13 13 12 12 12 12 12 13 14 13 12 12 11 10 10 9 9 8 7 7 6 6 6 5 5 5 4 4 4
6 4 1 2 5 6 5 6 6 8 8 7 7 9 8 8 5 6 9 10 9 8 7 7 7 7 7 7 7 8 8 8 9 10 9 8 8 9 8 6 6 5 5 5 6 6 6 8 9 10 12 13 14 14 14 15 16 16 16 16 17 18 18 17 17 16 15 14 15 14 14 14 13 14 14 14 15 15 14 13 12 12 11 11 10 9 8 7 6 6 6 6 5 5 5 4 3
4 4 4 4 4 6 6 5 6 8 8 8 9 9 7 6 4 5 9 10 10 9 8 7 7 7 6 6 6 7 8 8 9 9 10 10 10 11 10 9 9 7 5 5 4 3 3 4 6 8 9 10 12 13 12 14 15 15 15 15 16 17 18 18 17 17 16 15 15 15 15 15 15 15 15 16 16 16 16 15 14 13 13 12 11 11 10 8 7 7 6 6 6 6 6 5 4
4 6 7 6 4 4 5 7 7 7 8 8 8 9 7 1 2 3 6 10 10 10 9 7 7 7 6 6 6 6 8 8 8 9 10 11 12 14 13 12 12 10 8 7 5 4 4 1 2 5 6 8 10 12 12 13 14 15 16 16 17 17 17 17 17 17 17 16 15 15 15 15 15 16 16 17 17 17 17 16 15 14 14 13 12 12 11 10 9 8 7 7 7 7 6 6 5
5 6 7 7 7 6 7 9 7 6 8 9 8 10 7 2 3 2 5 10 10 10 10 8 7 7 7 6 6 6 7 8 9 9 10 11 13 15 16 16 15 14 12 11 8 7 6 3 1 1 2 5 6 8 10 12 14 15 16 16 17 17 17 17 17 17 17 16 15 15 15 15 15 15 17 18 18 18 17 17 16 15 14 14 13 13 12 11 10 10 9 8 8 8 7 6 5
Wind_Direction
239 251 243 241 243 243 226 228 245 196 234 258 247 255 147 143 334 282 239 235 267 107 200 289 191 171 163 219 176 125 31 29 50 343 152 101 133 134 135 134 131 134 139 138 138 145 146 149 152 155 154 153 150 145 144 142 139 135 133 134 140 145 148 151 152 154 154 156 157 154 148 145 144 141 142 142 141 142 145 147 150 150 151 152 145 143 146 145 138 132 129 128 125 125 125 127 127
250 248 231 228 220 230 214 211 260 220 226 253 237 241 97 137 238 246 277 328 347 58 181 194 170 165 139 358 172 158 59 46 55 73 92 119 134 132 139 134 130 133 137 137 138 146 148 150 153 156 157 154 151 146 146 144 141 135 132 134 140 146 149 151 151 151 151 153 151 148 145 143 143 139 137 138 139 142 143 143 144 148 152 150 146 149 152 149 140 136 136 134 130 129 130 129 127
246 248 215 206 207 231 240 205 254 254 239 257 233 130 77 230 236 302 357 360 49 77 159 154 156 153 189 184 179 185 109 71 79 90 110 135 136 135 140 132 130 130 133 137 138 145 149 152 153 157 158 156 152 148 148 146 142 137 134 135 140 145 148 149 148 147 149 149 148 146 145 145 145 142 141 143 145 143 141 142 146 151 156 154 153 155 155 154 148 144 142 138 135 135 133 131 132
241 244 219 211 203 223 229 219 249 264 254 260 250 97 67 282 330 356 62 103 91 116 149 151 152 124 270 174 143 131 99 93 94 102 120 129 131 137 140 134 130 128 132 138 140 145 150 153 152 156 159 158 154 149 149 148 145 140 138 137 140 144 145 146 145 145 146 147 147 147 146 147 147 146 147 149 148 144 145 147 150 153 158 159 155 156 158 156 150 148 146 142 140 141 138 135 135
242 226 225 239 233 221 236 242 249 253 259 275 280 76 55 20 18 60 116 121 124 163 174 176 150 123 319 42 55 125 104 101 105 112 115 112 127 138 139 136 130 129 133 137 143 148 152 153 152 156 159 160 156 151 150 150 148 144 141 139 141 144 144 143 143 144 146 147 148 149 149 151 150 150 150 150 148 148 151 151 153 155 158 159 156 158 158 153 151 152 149 146 148 144 139 138 139
215 197 212 245 268 313 251 241 238 241 252 302 297 59 57 54 65 99 123 133 151 178 204 219 168 157 158 55 34 49 78 104 123 122 122 125 135 140 138 138 133 130 132 136 142 148 153 153 153 155 159 161 159 154 152 152 151 148 144 142 143 145 147 146 146 148 149 151 152 153 153 153 152 151 151 150 149 152 157 157 159 159 158 159 159 159 155 152 152 156 153 150 149 145 143 143 144
207 192 192 224 229 242 246 244 248 247 135 315 292 55 64 75 80 100 149 172 183 177 191 232 192 161 129 110 73 62 44 75 120 123 128 135 138 140 140 140 133 128 131 135 138 146 152 154 156 156 159 162 162 159 154 154 153 150 148 146 146 148 150 151 153 154 154 156 156 158 157 154 153 153 153 151 151 154 160 163 165 163 158 155 157 155 152 152 154 161 159 154 151 148 149 148 150
218 217 194 228 218 207 244 252 252 267 98 135 277 49 45 45 24 297 215 196 191 170 176 166 204 195 102 159 121 86 97 86 110 120 127 136 138 141 142 139 132 128 130 131 135 142 150 155 157 158 158 161 164 163 159 156 154 154 152 149 150 151 153 155 158 159 159 160 159 159 159 159 158 157 156 154 151 154 159 163 167 165 159 153 154 153 151 153 160 167 162 157 157 154 154 154 154
211 225 214 236 240 224 241 251 241 261 249 220 225 194 329 313 288 282 245 216 177 188 181 151 218 223 121 136 110 106 113 101 113 123 132 140 139 141 142 139 132 129 130 130 135 138 149 156 158 160 159 160 164 166 163 159 156 157 157 154 154 155 157 158 159 162 163 163 162 161 162 164 164 163 159 157 153 153 155 158 166 168 163 158 155 151 150 158 167 170 163 157 158 161 160 154 149
204 222 238 240 248 243 238 242 225 230 242 236 231 230 280 284 280 269 247 228 179 193 155 148 220 178 133 133 116 114 117 118 124 127 136 140 140 141 138 136 130 130 130 130 135 138 149 158 160 163 163 162 163 166 167 163 160 160 161 159 157 159 160 159 160 162 164 164 165 165 166 169 170 168 163 160 156 154 155 156 166 170 168 163 155 151 153 166 175 174 164 157 159 163 162 153 147
212 204 243 249 240 245 247 241 213 220 233 236 235 229 297 299 283 266 245 232 200 196 150 179 193 139 133 129 118 115 122 132 133 129 135 139 141 138 133 132 130 130 130 130 134 140 146 156 162 164 167 167 162 164 169 168 164 165 166 163 162 162 161 161 162 163 165 166 166 169 171 174 175 172 168 165 158 154 158 160 165 170 171 170 162 154 159 171 180 182 169 161 167 166 164 157 153
232 195 216 242 243 250 267 276 256 263 245 236 207 135 42 318 279 266 245 226 207 204 182 191 170 148 147 126 121 132 136 140 133 131 135 136 137 138 134 128 128 128 128 131 133 139 144 153 160 162 169 171 167 162 165 171 171 170 170 169 167 164 164 165 164 165 168 169 171 173 172 175 179 174 173 172 163 156 161 166 167 171 173 176 173 164 168 173 174 182 177 175 179 169 162 159 158
242 223 225 240 262 269 274 283 265 269 253 224 151 98 23 311 289 273 262 244 212 208 192 168 157 164 150 118 130 145 144 139 134 138 139 136 136 138 135 128 127 127 128 132 134 139 143 149 155 160 168 172 171 161 159 172 173 173 177 174 170 167 168 168 167 168 171 174 176 177 173 174 181 176 174 177 169 159 163 172 171 171 173 176 177 174 178 179 177 184 187 188 177 164 163 164 161
245 247 253 250 259 264 263 266 245 256 236 138 101 71 340 310 309 287 268 251 220 201 165 143 169 170 136 128 146 158 147 141 142 143 140 137 135 135 135 132 130 129 132 134 136 140 143 148 150 155 164 169 170 163 164 172 171 176 182 176 171 172 175 172 170 173 176 178 178 179 173 173 178 175 174 177 174 165 164 172 171 171 174 176 179 182 185 186 188 192 191 183 171 171 180 183 169
249 240 256 258 250 243 233 250 267 266 211 114 91 36 326 319 309 283 254 246 215 128 129 144 192 187 168 184 169 159 148 144 146 142 137 133 132 135 134 136 136 135 135 135 139 141 143 146 148 153 159 165 165 163 169 174 176 181 182 178 176 175 177 177 177 178 182 182 181 182 177 174 174 172 175 177 177 171 164 168 171 173 175 177 181 187 191 190 192 196 192 179 174 183 197 203 196
245 246 240 249 248 237 198 222 248 254 161 110 88 12 325 334 279 273 262 258 224 133 179 167 182 288 200 203 150 145 144 142 144 138 134 132 131 135 137 140 141 138 136 138 141 140 144 144 148 153 153 161 161 160 170 174 182 186 182 184 183 180 180 180 181 183 185 184 181 183 183 177 172 175 179 179 181 176 168 169 168 173 177 180 184 185 191 193 194 194 192 188 189 196 206 213 217
223 239 240 242 235 236 196 209 227 278 74 95 7 356 329 336 232 262 272 249 230 170 184 138 118 56 81 133 130 138 141 140 141 137 135 135 135 138 142 144 143 140 141 142 141 139 143 146 149 151 148 154 155 158 166 172 185 186 183 189 189 186 186 184 184 186 185 183 182 185 184 178 176 181 184 185 187 179 175 176 169 171 175 180 188 186 187 193 195 194 194 199 204 209 214 218 228
216 227 235 242 232 233 245 244 280 329 324 343 338 349 338 334 297 218 214 215 208 179 170 134 111 86 95 117 127 137 140 141 143 142 142 143 143 142 144 148 148 146 147 145 144 143 142 148 152 151 148 147 150 155 160 170 184 183 181 189 192 190 189 187 184 186 186 183 185 188 187 189 190 190 189 191 191 179 180 184 174 173 174 178 187 191 194 194 194 194 196 201 209 217 219 217 227
229 239 236 243 244 246 348 300 309 303 300 321 326 338 338 330 321 214 222 200 187 183 174 163 138 115 122 126 131 140 144 145 148 152 150 151 150 145 146 150 152 150 152 150 150 154 151 156 156 153 150 146 150 151 154 165 173 176 176 181 190 192 192 189 183 188 192 187 189 193 196 205 205 198 193 191 188 179 184 190 181 179 177 178 185 194 200 198 197 199 201 201 204 213 218 217 219
225 240 241 241 258 275 292 276 282 290 304 312 316 325 327 331 326 251 237 202 189 194 180 178 167 142 139 137 141 148 150 150 153 158 155 155 155 152 153 155 158 158 158 157 156 161 162 166 161 157 157 153 154 151 155 161 162 168 172 174 182 188 191 191 190 197 203 198 196 197 200 208 213 214 202 193 186 175 184 191 188 188 186 185 189 193 200 203 203 203 205 202 197 202 212 222 223
206 221 249 264 301 275 267 258 273 292 305 306 310 314 322 16 281 262 243 206 199 205 183 185 178 152 145 145 152 154 153 153 156 160 158 157 157 157 159 158 163 162 160 161 161 165 168 171 166 162 163 164 162 155 155 156 157 160 162 170 177 181 188 194 197 200 206 208 204 199 198 203 214 222 206 192 185 180 190 191 190 192 193 198 201 199 202 205 202 197 198 198 201 209 214 219 221
232 224 252 279 285 271 274 282 288 300 299 292 297 307 332 340 254 249 239 218 207 196 161 165 171 153 149 149 156 158 156 157 158 161 161 160 158 158 159 158 161 161 164 166 165 168 170 172 169 169 171 170 169 164 158 153 155 156 159 170 174 180 185 190 199 203 204 206 206 200 193 195 206 217 204 195 195 195 196 192 192 193 195 203 208 210 209 206 204 201 199 197 205 216 220 220 220
245 231 240 262 268 274 282 285 286 293 286 283 297 313 323 290 255 233 235 232 36 60 126 121 136 140 143 148 157 162 160 159 159 162 164 160 158 158 158 159 161 165 170 168 166 168 170 174 174 174 175 174 174 174 166 155 156 160 167 173 176 183 186 189 200 207 206 202 204 203 193 192 200 211 208 207 209 205 202 199 199 200 201 205 207 212 217 215 215 215 212 204 201 209 218 223 223
244 252 247 259 268 272 272 278 281 279 278 284 294 295 284 274 269 215 221 168 47 75 131 121 121 127 136 149 162 164 161 160 159 161 163 161 159 158 160 162 164 170 172 168 167 170 174 178 178 177 178 179 183 187 181 165 160 164 169 175 180 185 187 194 199 201 204 201 203 204 196 193 200 208 210 214 215 209 207 206 206 205 205 209 207 211 218 222 225 224 218 209 200 205 214 222 225
233 256 264 262 265 263 267 279 280 275 275 279 273 265 265 270 287 222 199 124 75 116 136 129 125 130 143 159 166 162 159 160 159 159 161 165 164 162 165 165 165 170 169 168 173 175 179 182 182 184 184 187 191 195 195 182 172 169 169 176 183 183 184 192 194 195 200 202 203 204 200 199 204 210 215 218 217 209 208 213 216 211 206 209 208 212 218 216 221 225 221 212 201 204 213 220 226
211 247 263 264 263 266 281 288 278 272 264 255 244 237 226 219 221 205 158 121 105 121 138 138 137 143 154 165 166 160 161 164 162 161 164 167 167 168 170 168 166 169 169 169 175 178 180 181 181 182 180 184 185 188 196 190 186 182 175 176 179 181 183 181 180 187 197 204 205 205 205 207 207 211 219 221 215 209 217 224 226 220 216 218 216 216 221 218 219 218 217 216 207 206 214 220 224
196 254 272 271 271 279 289 283 268 251 222 223 232 209 135 182 215 184 124 131 141 137 143 148 149 152 160 164 164 166 168 170 168 166 168 168 170 173 171 170 169 170 169 170 173 174 174 174 171 171 169 168 172 180 186 186 194 200 190 183 175 176 181 172 169 183 195 197 201 206 207 210 211 212 221 225 223 219 224 230 226 223 226 227 224 219 221 222 218 210 211 222 217 209 212 218 224
277 273 278 261 253 257 259 252 237 226 195 204 225 177 138 184 208 83 106 147 167 155 153 159 158 154 160 162 163 171 171 171 171 171 174 172 171 173 171 171 170 169 169 170 170 166 168 171 165 163 164 165 171 177 174 180 191 202 207 201 179 167 168 172 168 173 188 190 201 210 205 209 222 227 232 233 231 230 235 239 230 225 224 227 227 220 217 220 214 206 207 218 216 203 204 211 221
269 273 277 254 208 179 194 180 184 204 162 192 231 190 166 169 108 74 108 157 177 178 167 165 164 155 158 160 163 170 169 169 171 174 175 172 169 169 170 170 167 165 164 167 165 161 166 168 164 161 167 175 180 176 167 177 190 192 193 196 185 166 168 184 173 166 171 165 178 195 182 184 211 227 242 243 230 230 239 243 237 231 227 232 235 225 218 217 212 207 203 204 203 199 201 204 210
257 244 263 255 195 157 101 134 165 156 112 233 243 216 172 140 92 90 128 165 182 185 177 171 167 159 160 163 167 167 165 167 168 171 170 166 165 165 166 166 166 163 158 162 162 161 164 165 165 167 177 183 181 175 166 174 183 184 183 179 177 168 183 192 178 179 185 179 191 198 189 216 218 212 235 247 229 226 239 241 233 234 231 233 237 228 218 212 210 207 202 199 196 197 200 198 200
240 227 233 239 206 130 93 115 169 145 118 233 245 240 172 124 93 101 134 173 193 192 181 177 171 166 167 167 171 166 163 169 166 165 164 159 160 163 164 163 167 164 156 159 160 162 166 166 168 172 183 186 178 175 175 177 173 173 176 165 152 141 157 169 160 181 198 198 210 209 189 225 238 221 220 234 225 222 238 241 232 236 231 227 229 224 216 210 209 207 205 201 193 196 198 195 198
222 227 196 207 213 119 100 77 67 116 115 197 246 246 170 117 86 99 142 185 203 206 186 181 178 172 172 169 173 170 162 165 166 162 157 155 159 163 168 169 170 166 158 159 160 164 168 171 175 176 182 183 179 181 177 171 161 156 150 134 125 118 126 135 128 149 160 158 157 156 157 160 226 221 223 232 230 224 230 237 235 233 228 222 218 213 210 209 211 210 210 207 197 199 200 196 200
205 242 193 185 218 148 127 99 66 82 127 173 242 260 184 113 89 98 148 197 205 215 190 183 185 176 178 177 177 175 163 162 168 168 161 162 167 169 174 175 175 170 163 164 165 168 170 174 179 179 181 181 181 178 171 168 159 149 135 123 120 116 117 119 117 119 120 134 135 127 130 131 160 199 218 232 236 234 225 228 235 230 222 218 212 208 210 210 212 212 212 210 205 204 202 198 202
186 228 189 169 243 206 149 128 94 74 212 167 216 263 294 99 133 125 168 209 216 220 197 185 188 183 185 185 183 180 171 167 172 172 167 169 173 174 175 175 176 172 169 171 171 171 171 173 177 178 180 181 180 174 168 164 154 143 133 124 120 119 117 113 117 124 120 118 116 112 115 126 148 170 185 215 236 239 227 227 238 231 219 213 208 210 214 214 214 214 214 212 211 213 210 207 209
188 206 202 172 200 237 175 119 78 30 219 171 197 236 238 110 206 190 187 210 225 222 206 197 194 191 193 192 193 188 178 172 174 173 170 171 173 176 178 174 176 178 178 177 175 174 172 170 173 174 177 179 177 173 166 160 155 148 142 138 129 127 128 126 127 123 116 106 100 99 106 125 135 143 166 198 228 239 234 234 242 242 233 219 207 211 214 214 214 214 215 215 216 220 221 218 219
309 256 261 221 192 208 140 87 57 17 252 198 203 242 246 223 168 174 199 208 231 226 208 212 205 200 201 199 200 194 184 174 170 171 172 175 177 179 180 176 179 184 187 187 182 178 176 173 172 173 177 178 175 173 172 170 168 163 158 156 145 140 133 125 123 114 106 101 101 105 108 121 136 147 170 185 206 228 237 236 239 240 240 231 220 224 222 212 214 217 217 217 220 221 219 221 225
286 246 239 238 228 204 129 98 73 17 293 203 149 275 251 262 79 136 195 204 225 225 214 218 216 212 210 207 206 195 186 172 165 168 174 181 182 180 181 179 179 183 189 191 188 185 184 182 178 176 179 181 179 179 179 180 178 171 169 164 150 145 140 131 124 112 104 99 97 102 102 110 127 141 158 172 186 200 201 208 216 222 228 230 228 228 225 217 218 222 219 218 224 223 216 219 224
241 236 227 220 229 205 116 99 95 32 296 205 146 262 242 235 161 141 177 207 220 223 219 221 223 224 223 219 215 201 188 172 167 170 177 185 185 182 183 183 183 184 188 190 189 188 188 188 185 180 180 184 186 185 182 181 180 174 166 159 148 141 137 134 127 118 111 106 101 98 98 103 116 126 132 146 159 162 152 120 103 98 115 173 195 183 196 209 212 216 215 219 226 229 227 223 218
228 230 232 224 220 196 125 122 133 70 287 253 182 272 257 237 226 175 186 210 214 218 225 228 229 232 232 228 223 210 199 185 179 177 180 187 190 187 187 189 190 189 188 189 189 188 187 189 188 184 183 184 187 190 187 179 173 163 151 146 141 136 129 120 118 119 119 114 109 103 102 105 107 118 125 131 138 133 125 112 101 81 74 77 81 95 101 118 150 175 205 219 219 218 224 224 218
223 223 228 222 180 223 198 144 149 137 290 293 304 280 264 235 222 206 196 205 202 207 227 238 241 243 242 242 237 224 212 200 192 186 183 189 192 191 192 193 191 188 188 189 188 187 187 189 189 187 184 184 186 190 186 175 170 161 146 141 133 129 130 126 123 125 127 122 115 107 109 115 111 112 118 123 126 123 115 109 105 90 81 79 73 70 67 71 77 87 133 195 209 201 197 208 221
208 225 241 241 181 241 263 136 161 201 202 267 281 264 255 227 223 213 182 189 208 207 216 229 235 238 242 250 247 238 230 220 206 196 190 191 195 195 195 193 189 188 190 190 189 188 187 188 189 187 185 184 186 188 184 176 173 165 152 148 142 135 139 145 146 140 138 132 121 113 116 123 119 113 114 116 118 118 113 106 106 103 96 94 91 85 74 63 57 61 77 90 152 200 167 174 199
204 209 232 252 247 235 249 212 221 241 210 188 285 270 247 181 213 213 170 187 204 196 204 217 221 222 227 238 241 238 235 233 226 213 201 197 197 196 194 193 190 192 193 192 191 190 188 188 188 186 185 186 186 189 189 181 175 169 163 162 160 159 159 160 158 150 147 136 121 119 121 124 124 120 117 116 116 116 113 108 107 106 104 101 95 97 92 74 68 58 44 65 78 66 141 145 146
227 189 210 231 242 227 228 226 231 259 250 136 271 275 265 195 203 189 176 201 194 175 188 208 212 214 218 230 237 238 234 231 232 227 219 209 202 197 195 193 192 194 194 190 189 189 189 188 187 186 185 186 186 190 191 185 182 178 173 171 167 168 165 156 152 147 143 133 124 125 126 128 130 127 124 121 121 120 115 114 110 107 107 104 97 93 89 78 73 64 53 62 67 43 106 127 110
274 86 199 213 220 215 221 233 235 267 296 199 221 258 273 255 218 162 179 213 198 173 172 193 202 209 218 236 245 252 255 247 240 234 228 221 212 204 199 194 193 194 191 186 186 187 188 187 185 185 187 187 186 191 191 187 189 185 178 176 171 172 164 150 149 145 142 137 131 129 130 133 135 134 134 129 126 125 119 115 112 108 105 102 98 91 84 79 72 65 63 66 66 56 59 95 85
27 42 223 207 212 215 224 242 250 266 283 251 221 220 258 259 213 161 186 219 213 183 163 182 188 190 212 248 273 286 289 281 271 256 243 232 221 213 204 196 192 191 189 187 187 185 185 185 185 184 188 189 188 193 193 190 194 190 182 178 172 172 163 152 155 151 148 146 140 137 133 134 137 135 135 131 126 124 120 115 111 106 101 95 94 91 85 82 76 71 69 64 67 71 71 80 92
89 142 186 177 193 209 225 249 260 242 249 265 241 197 256 269 225 191 196 220 226 185 157 175 174 179 204 302 311 305 302 293 282 273 263 248 231 219 210 199 189 186 187 187 185 183 183 183 185 186 189 191 191 195 195 192 195 195 189 182 175 173 168 164 164 158 157 157 152 149 144 140 139 136 135 133 128 125 121 117 112 105 100 95 95 96 93 89 84 79 78 75 74 75 75 75 75
151 184 195 192 199 210 228 244 264 254 246 259 224 190 255 274 247 220 195 119 10 144 190 179 168 204 344 353 330 323 320 310 296 284 274 256 236 219 208 198 188 182 181 183 182 183 183 183 186 189 191 192 193 196 197 194 196 198 196 189 181 177 175 176 177 170 169 169 166 164 160 154 148 146 144 140 137 133 126 121 115 108 105 101 100 101 100 97 96 90 86 84 82 81 81 82 79
198 213 220 222 218 217 234 228 223 251 253 205 124 177 239 256 253 215 111 81 63 321 264 251 307 328 353 348 339 340 330 319 309 299 288 258 230 207 196 193 187 180 177 181 183 183 184 186 187 189 192 194 194 196 198 197 197 200 201 196 189 184 180 183 188 186 180 179 179 176 170 165 161 159 158 155 153 149 140 133 126 116 110 107 105 104 104 104 104 101 96 92 89 90 89 88 87
219 229 229 236 237 225 239 242 232 246 247 116 121 174 231 251 257 125 121 119 105 47 315 331 339 345 351 343 340 342 332 329 324 316 313 260 219 200 193 190 186 181 180 184 185 183 185 187 189 191 192 194 195 197 198 199 200 202 203 201 197 192 189 190 193 194 192 190 189 185 180 178 175 173 173 171 168 164 159 152 143 131 121 117 113 109 108 110 111 108 107 103 98 97 95 95 92
217 229 231 243 250 244 245 247 251 253 225 116 132 184 239 249 242 91 102 103 94 98 43 3 360 356 349 343 346 351 351 352 350 351 360 298 191 191 194 190 184 181 182 185 187 186 186 188 191 194 194 195 196 197 199 201 203 204 205 205 201 198 197 196 198 199 199 200 198 193 191 189 186 184 184 182 178 174 171 165 157 146 135 129 124 121 117 116 118 116 114 112 107 104 101 98 94
221 235 243 249 254 258 262 262 263 264 235 130 143 189 247 247 120 82 95 112 114 119 96 63 32 18 5 4 8 7 7 12 16 24 27 38 150 170 180 180 177 176 177 181 186 188 190 191 193 196 196 195 197 199 200 203 205 207 207 208 206 204 203 202 204 205 202 205 206 201 199 199 197 193 190 186 182 180 178 173 166 156 148 143 135 132 130 126 125 123 121 120 116 114 113 106 98
218 232 245 252 260 258 267 296 315 305 284 220 186 220 255 202 124 126 136 138 137 129 114 103 76 57 42 34 29 20 18 23 28 38 43 45 102 147 157 164 168 172 174 178 185 188 192 194 196 198 198 197 198 202 204 206 207 208 209 210 210 208 208 207 207 207 204 205 209 208 207 205 203 198 191 186 183 184 183 178 173 167 160 155 149 146 143 139 140 138 133 132 129 127 126 121 115
191 226 243 252 299 271 264 253 98 292 269 258 234 243 247 209 172 155 153 154 147 143 132 114 90 77 67 51 37 28 29 31 34 42 51 56 75 101 125 145 158 170 176 181 188 190 194 197 197 197 197 197 199 204 209 211 211 212 212 213 213 213 213 213 211 209 206 206 209 213 213 209 205 201 191 185 184 187 187 183 181 176 170 166 162 158 156 152 152 151 148 145 142 142 137 130 127
247 240 242 161 250 256 253 258 237 230 255 257 230 237 248 251 217 155 163 171 157 151 139 123 110 95 79 62 46 36 36 38 41 45 46 53 62 70 82 110 137 158 172 179 185 188 193 199 201 202 200 200 204 205 209 212 214 217 217 217 217 218 218 219 218 216 213 212 211 212 213 210 206 202 193 187 187 188 189 189 187 183 179 176 172 169 166 164 162 158 156 154 151 152 151 141 134
267 285 272 229 251 241 227 248 257 251 258 262 243 237 247 256 238 172 182 183 164 154 145 134 120 99 81 64 51 41 39 39 45 49 47 49 55 59 65 76 96 117 136 152 168 177 188 198 204 209 210 209 211 210 209 212 216 220 222 221 221 222 223 223 223 222 219 217 215 213 212 209 205 204 200 194 191 190 191 192 192 190 187 184 181 178 175 174 173 168 166 165 163 165 167 159 152
229 257 232 233 268 270 254 251 260 263 264 269 265 255 250 261 260 212 199 181 164 157 145 134 115 95 77 63 51 42 43 40 44 54 56 58 61 64 69 72 76 81 88 99 122 146 166 198 211 213 217 217 218 219 217 217 220 223 224 224 223 225 227 227 226 226 224 222 220 217 214 210 207 206 203 199 197 196 195 195 195 194 191 190 189 186 184 184 183 180 180 176 170 173 178 174 174
222 237 233 229 240 263 267 256 252 261 265 267 271 267 263 329 7 257 195 164 159 157 144 132 116 99 81 67 56 49 52 48 46 54 58 60 64 67 72 75 76 76 75 76 77 84 93 111 232 221 222 223 224 225 225 225 227 227 227 226 227 228 229 230 230 229 229 229 225 221 219 214 210 208 203 201 202 201 199 198 198 197 196 195 194 191 190 190 190 188 185 181 176 179 184 180 180
287 267 254 254 251 250 259 255 244 246 262 268 269 270 275 49 34 293 163 150 154 152 143 135 121 107 91 79 69 63 62 57 54 56 58 59 61 64 68 71 74 77 77 78 78 78 86 100 130 216 235 240 242 238 234 235 236 233 231 231 231 231 231 232 232 232 234 233 229 225 222 216 212 209 205 203 204 203 202 202 201 200 200 200 199 197 196 195 196 193 187 184 183 185 188 183 182